,,,PA_Meas_PMT16A,,PR_Meas_QMR101_102,,RH_Meas_QMH101,,SR_Meas_QMS101,,TA_Meas_QMH101,,GenWind,,GenWind,
date,time,status,PA,status,PR,status,RH,status,SR,status,TA,status,DirAvg,status,SpdAvg,
2008-11-20, 00:00:05,VALID,1003.69,VALID,0,VALID,95.8264,VALID,0,VALID,24.1123,VALID,75,VALID,0.661328,
2008-11-20, 00:01:05,VALID,1003.66,VALID,0,VALID,95.8493,VALID,0,VALID,24.1142,VALID,76,VALID,0.0449219,
2008-11-20, 00:02:05,VALID,1003.6,VALID,0.5,VALID,95.8721,VALID,0,VALID,24.1123,VALID,76,VALID,0.274219,
2008-11-20, 00:03:05,VALID,1003.65,VALID,0,VALID,95.9027,VALID,0,VALID,24.1318,VALID,76,VALID,0.242578,
2008-11-20, 00:04:05,VALID,1003.63,VALID,0,VALID,95.9179,VALID,0,VALID,24.1513,VALID,76,VALID,0.384766,
2008-11-20, 00:05:05,VALID,1003.64,VALID,0,VALID,95.9027,VALID,0,VALID,24.1318,VALID,76,VALID,0.35,
2008-11-20, 00:06:05,VALID,1003.58,VALID,0.5,VALID,95.9179,VALID,0.100563,VALID,24.1105,VALID,25,VALID,0.194141,
2008-11-20, 00:07:05,VALID,1003.58,VALID,0,VALID,95.9332,VALID,0,VALID,24.1726,VALID,25,VALID,0.0195313,
2008-11-20, 00:08:05,VALID,1003.54,VALID,0,VALID,95.9408,VALID,0,VALID,24.1513,VALID,25,VALID,0.482031,
2008-11-20, 00:09:05,VALID,1003.54,VALID,0,VALID,95.9484,VALID,0,VALID,24.1123,VALID,25,VALID,0.407422,
2008-11-20, 00:10:05,VALID,1003.43,VALID,0,VALID,95.9484,VALID,0,VALID,24.192,VALID,349,VALID,0.527344,
2008-11-20, 00:11:05,VALID,1003.41,VALID,0,VALID,95.9713,VALID,0,VALID,24.1707,VALID,340,VALID,0.296875,
2008-11-20, 00:12:05,VALID,1003.37,VALID,0,VALID,95.9484,VALID,0,VALID,24.1707,VALID,340,VALID,0.1125,
2008-11-20, 00:13:05,VALID,1003.34,VALID,0,VALID,95.9561,VALID,0,VALID,24.1902,VALID,340,VALID,0.282422,
2008-11-20, 00:14:05,VALID,1003.33,VALID,0,VALID,96.0018,VALID,0,VALID,24.1902,VALID,43,VALID,0.422266,
2008-11-20, 00:15:05,VALID,1003.31,VALID,0,VALID,95.9789,VALID,0,VALID,24.1707,VALID,53,VALID,0.138672,
2008-11-20, 00:16:05,VALID,1003.3,VALID,0,VALID,95.9713,VALID,0,VALID,24.1513,VALID,53,VALID,0.251563,
2008-11-20, 00:17:05,VALID,1003.3,VALID,0,VALID,95.9637,VALID,0,VALID,24.1513,VALID,53,VALID,0.289844,
2008-11-20, 00:18:05,VALID,1003.3,VALID,0,VALID,95.9942,VALID,0,VALID,24.1707,VALID,53,VALID,0,
2008-11-20, 00:19:05,VALID,1003.26,VALID,0,VALID,95.9866,VALID,0,VALID,24.1707,VALID,84,VALID,0.428906,
2008-11-20, 00:20:05,VALID,1003.27,VALID,0,VALID,95.9942,VALID,0,VALID,24.1513,VALID,102,VALID,0.591406,
2008-11-20, 00:21:05,VALID,1003.24,VALID,0,VALID,96.0018,VALID,0,VALID,24.1513,VALID,124,VALID,0.863672,
2008-11-20, 00:22:05,VALID,1003.22,VALID,0,VALID,96.0171,VALID,0,VALID,24.1707,VALID,126,VALID,0.643359,
2008-11-20, 00:23:05,VALID,1003.17,VALID,0,VALID,96.0095,VALID,0,VALID,24.1707,VALID,126,VALID,0.393359,
2008-11-20, 00:24:05,VALID,1003.14,VALID,0,VALID,96.0171,VALID,0,VALID,24.1707,VALID,126,VALID,0.269141,
2008-11-20, 00:25:05,VALID,1003.1,VALID,0,VALID,96.0247,VALID,0,VALID,24.1726,VALID,126,VALID,0.532422,
2008-11-20, 00:26:05,VALID,1003.08,VALID,0,VALID,96.0247,VALID,0,VALID,24.1318,VALID,126,VALID,0.566016,
2008-11-20, 00:27:05,VALID,1003.04,VALID,0,VALID,96.04,VALID,0,VALID,24.1726,VALID,139,VALID,0.579297,
2008-11-20, 00:28:05,VALID,1003.03,VALID,0,VALID,96.04,VALID,0,VALID,24.1513,VALID,140,VALID,0.549219,
2008-11-20, 00:29:05,VALID,1003.02,VALID,0,VALID,96.101,VALID,0,VALID,24.1513,VALID,140,VALID,0.703516,
2008-11-20, 00:30:05,VALID,1003,VALID,0,VALID,96.101,VALID,0,VALID,24.1318,VALID,138,VALID,0.935547,
2008-11-20, 00:31:05,VALID,1002.97,VALID,0.5,VALID,96.1163,VALID,0,VALID,24.1318,VALID,135,VALID,0.744531,
2008-11-20, 00:32:05,VALID,1002.95,VALID,0,VALID,96.1315,VALID,0,VALID,24.1513,VALID,136,VALID,0.911328,
2008-11-20, 00:33:05,VALID,1002.94,VALID,0,VALID,96.1315,VALID,0,VALID,24.1513,VALID,133,VALID,1.24453,
2008-11-20, 00:34:05,VALID,1002.92,VALID,0,VALID,96.1392,VALID,0,VALID,24.1318,VALID,118,VALID,1.17148,
2008-11-20, 00:35:05,VALID,1002.87,VALID,0,VALID,96.1315,VALID,0,VALID,24.1123,VALID,102,VALID,0.757813,
2008-11-20, 00:36:05,VALID,1002.86,VALID,0,VALID,96.1315,VALID,0,VALID,24.1123,VALID,96,VALID,0.592969,
2008-11-20, 00:37:05,VALID,1002.85,VALID,0,VALID,96.1468,VALID,0,VALID,24.0947,VALID,82,VALID,0.730078,
2008-11-20, 00:38:05,VALID,1002.81,VALID,0,VALID,96.1239,VALID,0,VALID,24.0734,VALID,85,VALID,0.433984,
2008-11-20, 00:39:05,VALID,1002.81,VALID,0,VALID,96.1468,VALID,0,VALID,24.0734,VALID,97,VALID,0.501562,
2008-11-20, 00:40:05,VALID,1002.78,VALID,0,VALID,96.1544,VALID,0,VALID,24.0539,VALID,81,VALID,0.548828,
2008-11-20, 00:41:05,VALID,1002.77,VALID,0,VALID,96.1468,VALID,0,VALID,24.0539,VALID,85,VALID,0.425,
2008-11-20, 00:42:05,VALID,1002.75,VALID,0,VALID,96.1468,VALID,0,VALID,24.0132,VALID,96,VALID,0.803125,
2008-11-20, 00:43:05,VALID,1002.74,VALID,0,VALID,96.1544,VALID,0,VALID,24.0132,VALID,95,VALID,1.02617,
2008-11-20, 00:44:05,VALID,1002.69,VALID,0,VALID,96.1544,VALID,0,VALID,24.015,VALID,94,VALID,1.25547,
2008-11-20, 00:45:05,VALID,1002.65,VALID,0.5,VALID,96.1544,VALID,0,VALID,24.015,VALID,95,VALID,0.398438,
2008-11-20, 00:46:05,VALID,1002.62,VALID,0,VALID,96.1468,VALID,0,VALID,23.9955,VALID,83,VALID,0.340625,
2008-11-20, 00:47:05,VALID,1002.57,VALID,0,VALID,96.1544,VALID,0,VALID,24.0363,VALID,77,VALID,0.0121094,
2008-11-20, 00:48:05,VALID,1002.5,VALID,0,VALID,96.1697,VALID,0,VALID,23.9955,VALID,77,VALID,0.20625,
2008-11-20, 00:49:05,VALID,1002.5,VALID,0,VALID,96.1773,VALID,0,VALID,24.015,VALID,77,VALID,0,
2008-11-20, 00:50:05,VALID,1002.45,VALID,0,VALID,96.1697,VALID,0,VALID,24.015,VALID,76,VALID,0.115625,
2008-11-20, 00:51:05,VALID,1002.45,VALID,0,VALID,96.162,VALID,0,VALID,24.0345,VALID,75,VALID,0.133594,
2008-11-20, 00:52:05,VALID,1002.42,VALID,0,VALID,96.1849,VALID,0,VALID,24.0345,VALID,79,VALID,0.0847656,
2008-11-20, 00:53:05,VALID,1002.4,VALID,0,VALID,96.1849,VALID,0,VALID,24.0363,VALID,86,VALID,0.503906,
2008-11-20, 00:54:05,VALID,1002.38,VALID,0,VALID,96.1849,VALID,0,VALID,23.9955,VALID,88,VALID,0.268359,
2008-11-20, 00:55:05,VALID,1002.39,VALID,0,VALID,96.1849,VALID,0,VALID,23.9955,VALID,88,VALID,0.485938,
2008-11-20, 00:56:05,VALID,1002.35,VALID,0,VALID,96.1849,VALID,0,VALID,23.9955,VALID,88,VALID,0.276172,
2008-11-20, 00:57:05,VALID,1002.35,VALID,0,VALID,96.1926,VALID,0,VALID,24.015,VALID,88,VALID,0.272266,
2008-11-20, 00:58:05,VALID,1002.32,VALID,0,VALID,96.1849,VALID,0,VALID,24.015,VALID,88,VALID,0.40625,
2008-11-20, 00:59:05,VALID,1002.3,VALID,0,VALID,96.2002,VALID,0,VALID,24.015,VALID,88,VALID,0.333203,
2008-11-20, 01:00:05,VALID,1002.32,VALID,0,VALID,96.2078,VALID,0,VALID,24.0345,VALID,88,VALID,0.261719,
2008-11-20, 01:01:05,VALID,1002.3,VALID,0,VALID,96.2002,VALID,0,VALID,24.015,VALID,88,VALID,0.523438,
2008-11-20, 01:02:05,VALID,1002.28,VALID,0,VALID,96.2002,VALID,0,VALID,24.015,VALID,88,VALID,0.430859,
2008-11-20, 01:03:05,VALID,1002.29,VALID,0,VALID,96.2078,VALID,0,VALID,24.015,VALID,88,VALID,0.372656,
2008-11-20, 01:04:05,VALID,1002.29,VALID,0,VALID,96.1926,VALID,0,VALID,24.0345,VALID,88,VALID,0.412891,
2008-11-20, 01:05:05,VALID,1002.3,VALID,0,VALID,96.2078,VALID,0,VALID,24.015,VALID,102,VALID,0.498828,
2008-11-20, 01:06:05,VALID,1002.31,VALID,0,VALID,96.2002,VALID,0,VALID,24.0345,VALID,102,VALID,0.290234,
2008-11-20, 01:07:05,VALID,1002.32,VALID,0,VALID,96.246,VALID,0,VALID,24.0345,VALID,102,VALID,0.489844,
2008-11-20, 01:08:05,VALID,1002.31,VALID,0,VALID,96.2383,VALID,0,VALID,24.015,VALID,102,VALID,0.317578,
2008-11-20, 01:09:05,VALID,1002.33,VALID,0,VALID,96.2231,VALID,0,VALID,24.0363,VALID,102,VALID,0.153906,
2008-11-20, 01:10:05,VALID,1002.3,VALID,0,VALID,96.2154,VALID,0,VALID,24.0168,VALID,102,VALID,0.310156,
2008-11-20, 01:11:05,VALID,1002.3,VALID,0,VALID,96.2231,VALID,0,VALID,24.0168,VALID,102,VALID,0.0535156,
2008-11-20, 01:12:05,VALID,1002.3,VALID,0,VALID,96.2002,VALID,0,VALID,23.9955,VALID,102,VALID,0.00507812,
2008-11-20, 01:13:05,VALID,1002.26,VALID,0,VALID,96.2231,VALID,0,VALID,24.015,VALID,102,VALID,0.213281,
2008-11-20, 01:14:05,VALID,1002.27,VALID,0.5,VALID,96.2307,VALID,0,VALID,23.9955,VALID,102,VALID,0.120703,
2008-11-20, 01:15:05,VALID,1002.25,VALID,0,VALID,96.2383,VALID,0,VALID,24.0168,VALID,102,VALID,0.165234,
2008-11-20, 01:16:05,VALID,1002.25,VALID,0,VALID,96.2307,VALID,0,VALID,23.9955,VALID,101,VALID,0.2375,
2008-11-20, 01:17:05,VALID,1002.23,VALID,0,VALID,96.2307,VALID,0,VALID,23.9955,VALID,101,VALID,0.0296875,
2008-11-20, 01:18:05,VALID,1002.23,VALID,0,VALID,96.2383,VALID,0,VALID,24.0168,VALID,101,VALID,0,
2008-11-20, 01:19:05,VALID,1002.24,VALID,0,VALID,96.2383,VALID,0,VALID,24.0363,VALID,101,VALID,0.131641,
2008-11-20, 01:20:05,VALID,1002.23,VALID,0,VALID,96.2383,VALID,0,VALID,24.015,VALID,90,VALID,0.0207031,
2008-11-20, 01:21:05,VALID,1002.2,VALID,0,VALID,96.246,VALID,0,VALID,24.015,VALID,90,VALID,0.248828,
2008-11-20, 01:22:05,VALID,1002.24,VALID,0,VALID,96.2231,VALID,0,VALID,24.0345,VALID,68,VALID,0.374219,
2008-11-20, 01:23:05,VALID,1002.24,VALID,0,VALID,96.246,VALID,0,VALID,24.0539,VALID,355,VALID,0.421484,
2008-11-20, 01:24:05,VALID,1002.26,VALID,0,VALID,96.2383,VALID,0,VALID,24.0539,VALID,355,VALID,0.350391,
2008-11-20, 01:25:05,VALID,1002.3,VALID,0,VALID,96.2536,VALID,0,VALID,24.0345,VALID,355,VALID,0.448438,
2008-11-20, 01:26:05,VALID,1002.33,VALID,0,VALID,96.2383,VALID,0,VALID,24.0345,VALID,355,VALID,0.321094,
2008-11-20, 01:27:05,VALID,1002.34,VALID,0,VALID,96.246,VALID,0,VALID,24.0363,VALID,354,VALID,0.0335938,
2008-11-20, 01:28:05,VALID,1002.35,VALID,0,VALID,96.2383,VALID,0,VALID,24.0363,VALID,22,VALID,0.198437,
2008-11-20, 01:29:05,VALID,1002.38,VALID,0,VALID,96.2383,VALID,0,VALID,24.015,VALID,22,VALID,0.241406,
2008-11-20, 01:30:05,VALID,1002.36,VALID,0,VALID,96.2612,VALID,0,VALID,24.015,VALID,21,VALID,0.138281,
2008-11-20, 01:31:05,VALID,1002.38,VALID,0,VALID,96.246,VALID,0,VALID,24.015,VALID,264,VALID,0.232031,
2008-11-20, 01:32:05,VALID,1002.38,VALID,0,VALID,96.2612,VALID,0,VALID,24.0363,VALID,282,VALID,0.632813,
2008-11-20, 01:33:05,VALID,1002.41,VALID,0,VALID,96.246,VALID,0,VALID,24.015,VALID,281,VALID,0.150391,
2008-11-20, 01:34:05,VALID,1002.36,VALID,0,VALID,96.246,VALID,0,VALID,24.015,VALID,281,VALID,0.243359,
2008-11-20, 01:35:05,VALID,1002.38,VALID,0,VALID,96.246,VALID,0,VALID,23.9955,VALID,281,VALID,0.0769531,
2008-11-20, 01:36:05,VALID,1002.38,VALID,0,VALID,96.246,VALID,0,VALID,23.9973,VALID,297,VALID,0.601172,
2008-11-20, 01:37:05,VALID,1002.37,VALID,0,VALID,96.2612,VALID,0,VALID,23.9761,VALID,339,VALID,0.410156,
2008-11-20, 01:38:05,VALID,1002.37,VALID,0,VALID,96.2383,VALID,0,VALID,23.9566,VALID,350,VALID,0.890234,
2008-11-20, 01:39:05,VALID,1002.34,VALID,0,VALID,96.246,VALID,0,VALID,23.9371,VALID,345,VALID,1.00547,
2008-11-20, 01:40:05,VALID,1002.31,VALID,0,VALID,96.2536,VALID,0,VALID,23.9177,VALID,352,VALID,0.817578,
2008-11-20, 01:41:05,VALID,1002.3,VALID,0,VALID,96.2688,VALID,0,VALID,23.9177,VALID,336,VALID,0.4,
2008-11-20, 01:42:05,VALID,1002.29,VALID,0,VALID,96.2536,VALID,0,VALID,23.9195,VALID,12,VALID,0.830078,
2008-11-20, 01:43:05,VALID,1002.3,VALID,0,VALID,96.2383,VALID,0,VALID,23.9195,VALID,360,VALID,0.805078,
2008-11-20, 01:44:05,VALID,1002.33,VALID,0,VALID,96.2536,VALID,0,VALID,23.9,VALID,343,VALID,0.703516,
2008-11-20, 01:45:05,VALID,1002.33,VALID,0,VALID,96.2536,VALID,0,VALID,23.8787,VALID,347,VALID,0.709766,
2008-11-20, 01:46:05,VALID,1002.31,VALID,0,VALID,96.2688,VALID,0,VALID,23.8593,VALID,347,VALID,0.980859,
2008-11-20, 01:47:05,VALID,1002.28,VALID,0,VALID,96.2688,VALID,0,VALID,23.8787,VALID,357,VALID,0.775,
2008-11-20, 01:48:05,VALID,1002.27,VALID,0,VALID,96.2688,VALID,0,VALID,23.8611,VALID,350,VALID,0.667969,
2008-11-20, 01:49:05,VALID,1002.22,VALID,0,VALID,96.2688,VALID,0,VALID,23.8611,VALID,11,VALID,0.623047,
2008-11-20, 01:50:05,VALID,1002.2,VALID,0,VALID,96.2688,VALID,0,VALID,23.8593,VALID,2,VALID,0.471875,
2008-11-20, 01:51:05,VALID,1002.2,VALID,0,VALID,96.2841,VALID,0,VALID,23.8787,VALID,350,VALID,0.644922,
2008-11-20, 01:52:05,VALID,1002.18,VALID,0,VALID,96.2383,VALID,0,VALID,23.8611,VALID,352,VALID,0.551172,
2008-11-20, 01:53:05,VALID,1002.18,VALID,0,VALID,96.2612,VALID,0,VALID,23.8787,VALID,351,VALID,0.235938,
2008-11-20, 01:54:05,VALID,1002.15,VALID,0,VALID,96.2688,VALID,0,VALID,23.8805,VALID,353,VALID,0.455469,
2008-11-20, 01:55:05,VALID,1002.15,VALID,0,VALID,96.2688,VALID,0,VALID,23.8593,VALID,353,VALID,0.358203,
2008-11-20, 01:56:05,VALID,1002.11,VALID,0,VALID,96.2612,VALID,0,VALID,23.8593,VALID,353,VALID,0.369922,
2008-11-20, 01:57:05,VALID,1002.13,VALID,0,VALID,96.2765,VALID,0,VALID,23.8593,VALID,353,VALID,0.580078,
2008-11-20, 01:58:05,VALID,1002.13,VALID,0,VALID,96.2841,VALID,0,VALID,23.8611,VALID,353,VALID,0.423047,
2008-11-20, 01:59:05,VALID,1002.14,VALID,0,VALID,96.2841,VALID,0,VALID,23.8398,VALID,15,VALID,0.640234,
2008-11-20, 02:00:05,VALID,1002.13,VALID,0,VALID,96.2688,VALID,0,VALID,23.8203,VALID,18,VALID,0.599609,
2008-11-20, 02:01:04,VALID,1002.14,VALID,0,VALID,96.2765,VALID,0,VALID,23.8398,VALID,18,VALID,0.401953,
2008-11-20, 02:02:04,VALID,1002.13,VALID,0,VALID,96.2841,VALID,0,VALID,23.8398,VALID,18,VALID,0.307813,
2008-11-20, 02:03:04,VALID,1002.1,VALID,0,VALID,96.2765,VALID,0,VALID,23.8203,VALID,18,VALID,0.329297,
2008-11-20, 02:04:04,VALID,1002.12,VALID,0,VALID,96.307,VALID,0,VALID,23.8398,VALID,18,VALID,0.0738281,
2008-11-20, 02:05:04,VALID,1002.11,VALID,0,VALID,96.2994,VALID,0,VALID,23.8203,VALID,18,VALID,0,
2008-11-20, 02:06:04,VALID,1002.09,VALID,0,VALID,96.2917,VALID,0,VALID,23.8221,VALID,18,VALID,0,
2008-11-20, 02:07:04,VALID,1002.09,VALID,0,VALID,96.2917,VALID,0,VALID,23.8009,VALID,18,VALID,0,
2008-11-20, 02:08:04,VALID,1002.03,VALID,0,VALID,96.2917,VALID,0,VALID,23.7814,VALID,18,VALID,0,
2008-11-20, 02:09:04,VALID,1002.04,VALID,0,VALID,96.2994,VALID,0,VALID,23.7814,VALID,18,VALID,0.463281,
2008-11-20, 02:10:04,VALID,1002.04,VALID,0,VALID,96.307,VALID,0,VALID,23.7619,VALID,18,VALID,0.638281,
2008-11-20, 02:11:04,VALID,1002.02,VALID,0,VALID,96.2917,VALID,0,VALID,23.7601,VALID,18,VALID,0.621094,
2008-11-20, 02:12:04,VALID,1002.02,VALID,0,VALID,96.3146,VALID,0,VALID,23.7832,VALID,18,VALID,0.507422,
2008-11-20, 02:13:04,VALID,1002,VALID,0,VALID,96.307,VALID,0,VALID,23.723,VALID,17,VALID,0.542188,
2008-11-20, 02:14:04,VALID,1002.03,VALID,0,VALID,96.2917,VALID,0,VALID,23.723,VALID,9,VALID,0.676172,
2008-11-20, 02:15:04,VALID,1002.02,VALID,0,VALID,96.307,VALID,0,VALID,23.7035,VALID,8,VALID,0.29375,
2008-11-20, 02:16:04,VALID,1002.04,VALID,0,VALID,96.307,VALID,0,VALID,23.7035,VALID,8,VALID,0.297266,
2008-11-20, 02:17:04,VALID,1002.04,VALID,0,VALID,96.3299,VALID,0,VALID,23.7248,VALID,3,VALID,0.162109,
2008-11-20, 02:18:04,VALID,1002.07,VALID,0,VALID,96.3299,VALID,0,VALID,23.723,VALID,3,VALID,0.00117188,
2008-11-20, 02:19:04,VALID,1002.07,VALID,0,VALID,96.3299,VALID,0,VALID,23.7443,VALID,359,VALID,0.216797,
2008-11-20, 02:20:04,VALID,1002.05,VALID,0,VALID,96.3451,VALID,0,VALID,23.7443,VALID,349,VALID,0.470313,
2008-11-20, 02:21:04,VALID,1002.06,VALID,0,VALID,96.3299,VALID,0,VALID,23.7212,VALID,273,VALID,0.217187,
2008-11-20, 02:22:04,VALID,1002.05,VALID,0,VALID,96.3222,VALID,0,VALID,23.7425,VALID,273,VALID,0.0015625,
2008-11-20, 02:23:04,VALID,1002.08,VALID,0,VALID,96.3222,VALID,0,VALID,23.7212,VALID,273,VALID,0.0351563,
2008-11-20, 02:24:04,VALID,1002.06,VALID,0,VALID,96.3222,VALID,0,VALID,23.7407,VALID,273,VALID,0.00351562,
2008-11-20, 02:25:04,VALID,1002.04,VALID,0,VALID,96.3299,VALID,0,VALID,23.7619,VALID,273,VALID,0,
2008-11-20, 02:26:04,VALID,1002.03,VALID,0,VALID,96.3299,VALID,0,VALID,23.7425,VALID,273,VALID,0,
2008-11-20, 02:27:04,VALID,1002,VALID,0,VALID,96.3299,VALID,0,VALID,23.7832,VALID,273,VALID,0,
2008-11-20, 02:28:04,VALID,1002,VALID,0,VALID,96.3299,VALID,0,VALID,23.7619,VALID,273,VALID,0,
2008-11-20, 02:29:04,VALID,1002.01,VALID,0,VALID,96.3299,VALID,0,VALID,23.7425,VALID,273,VALID,0,
2008-11-20, 02:30:04,VALID,1002.03,VALID,0,VALID,96.3299,VALID,0,VALID,23.723,VALID,273,VALID,0,
2008-11-20, 02:31:04,VALID,1002.06,VALID,0,VALID,96.3451,VALID,0,VALID,23.7035,VALID,273,VALID,0.289844,
2008-11-20, 02:32:04,VALID,1002.04,VALID,0,VALID,96.3222,VALID,0,VALID,23.6841,VALID,273,VALID,0.355469,
2008-11-20, 02:33:04,VALID,1002.06,VALID,0,VALID,96.3375,VALID,0,VALID,23.6841,VALID,273,VALID,0.103125,
2008-11-20, 02:34:04,VALID,1002.07,VALID,0,VALID,96.3451,VALID,0,VALID,23.6841,VALID,273,VALID,0.323438,
2008-11-20, 02:35:04,VALID,1002.1,VALID,0,VALID,96.3451,VALID,0,VALID,23.6646,VALID,273,VALID,0.378125,
2008-11-20, 02:36:04,VALID,1002.08,VALID,0,VALID,96.3528,VALID,0,VALID,23.6646,VALID,273,VALID,0.33125,
2008-11-20, 02:37:04,VALID,1002.12,VALID,0,VALID,96.3604,VALID,0,VALID,23.6646,VALID,273,VALID,0.208984,
2008-11-20, 02:38:04,VALID,1002.09,VALID,0,VALID,96.3451,VALID,0,VALID,23.6452,VALID,274,VALID,0.350391,
2008-11-20, 02:39:04,VALID,1002.09,VALID,0,VALID,96.3451,VALID,0,VALID,23.6469,VALID,49,VALID,0.498437,
2008-11-20, 02:40:04,VALID,1002.1,VALID,0,VALID,96.3604,VALID,0,VALID,23.6062,VALID,54,VALID,0.526172,
2008-11-20, 02:41:04,VALID,1002.11,VALID,0,VALID,96.3528,VALID,0,VALID,23.6062,VALID,97,VALID,0.512109,
2008-11-20, 02:42:04,VALID,1002.11,VALID,0,VALID,96.3604,VALID,0,VALID,23.6062,VALID,97,VALID,0.471094,
2008-11-20, 02:43:04,VALID,1002.1,VALID,0,VALID,96.3528,VALID,0,VALID,23.6062,VALID,97,VALID,0.210938,
2008-11-20, 02:44:04,VALID,1002.13,VALID,0,VALID,96.368,VALID,0,VALID,23.6062,VALID,97,VALID,0.182422,
2008-11-20, 02:45:04,VALID,1002.16,VALID,0,VALID,96.3528,VALID,0,VALID,23.5868,VALID,97,VALID,0.311328,
2008-11-20, 02:46:04,VALID,1002.19,VALID,0,VALID,96.3756,VALID,0,VALID,23.5868,VALID,97,VALID,0.302734,
2008-11-20, 02:47:04,VALID,1002.23,VALID,0,VALID,96.3909,VALID,0,VALID,23.546,VALID,97,VALID,0.389844,
2008-11-20, 02:48:04,VALID,1002.28,VALID,0,VALID,96.3528,VALID,0,VALID,23.5478,VALID,97,VALID,0.359375,
2008-11-20, 02:49:04,VALID,1002.28,VALID,0,VALID,96.3528,VALID,0,VALID,23.5478,VALID,97,VALID,0,
2008-11-20, 02:50:04,VALID,1002.26,VALID,0,VALID,96.3528,VALID,0,VALID,23.5478,VALID,97,VALID,0.291016,
2008-11-20, 02:51:04,VALID,1002.25,VALID,0,VALID,96.3604,VALID,0,VALID,23.5478,VALID,97,VALID,0.444141,
2008-11-20, 02:52:04,VALID,1002.26,VALID,0,VALID,96.3528,VALID,0,VALID,23.5478,VALID,36,VALID,0.593359,
2008-11-20, 02:53:04,VALID,1002.28,VALID,0,VALID,96.368,VALID,0,VALID,23.5089,VALID,32,VALID,0.455859,
2008-11-20, 02:54:04,VALID,1002.28,VALID,0,VALID,96.3604,VALID,0,VALID,23.5284,VALID,31,VALID,0.148828,
2008-11-20, 02:55:04,VALID,1002.3,VALID,0,VALID,96.3604,VALID,0,VALID,23.5284,VALID,31,VALID,0,
2008-11-20, 02:56:04,VALID,1002.27,VALID,0,VALID,96.3833,VALID,0.100563,VALID,23.5284,VALID,31,VALID,0.0859375,
2008-11-20, 02:57:04,VALID,1002.3,VALID,0,VALID,96.368,VALID,0,VALID,23.5284,VALID,31,VALID,0.333984,
2008-11-20, 02:58:04,VALID,1002.28,VALID,0,VALID,96.3604,VALID,0,VALID,23.5284,VALID,9,VALID,0.347266,
2008-11-20, 02:59:04,VALID,1002.32,VALID,0,VALID,96.3833,VALID,0,VALID,23.5478,VALID,9,VALID,0.521875,
2008-11-20, 03:00:04,VALID,1002.32,VALID,0,VALID,96.3909,VALID,0,VALID,23.5478,VALID,9,VALID,0.423047,
2008-11-20, 03:01:04,VALID,1002.31,VALID,0,VALID,96.3909,VALID,0.100563,VALID,23.5868,VALID,9,VALID,0.444141,
2008-11-20, 03:02:04,VALID,1002.29,VALID,0,VALID,96.3985,VALID,0,VALID,23.5868,VALID,9,VALID,0.464453,
2008-11-20, 03:03:04,VALID,1002.27,VALID,0,VALID,96.3756,VALID,0,VALID,23.6044,VALID,7,VALID,0.419531,
2008-11-20, 03:04:04,VALID,1002.24,VALID,0,VALID,96.3909,VALID,0.100563,VALID,23.6239,VALID,3,VALID,0.292969,
2008-11-20, 03:05:04,VALID,1002.2,VALID,0,VALID,96.3909,VALID,0.100563,VALID,23.6239,VALID,3,VALID,0.126953,
2008-11-20, 03:06:04,VALID,1002.2,VALID,0,VALID,96.3985,VALID,0.100563,VALID,23.6239,VALID,3,VALID,0,
2008-11-20, 03:07:04,VALID,1002.16,VALID,0,VALID,96.3833,VALID,0.100563,VALID,23.6434,VALID,3,VALID,0.00390625,
2008-11-20, 03:08:04,VALID,1002.2,VALID,0,VALID,96.3985,VALID,0,VALID,23.6646,VALID,3,VALID,0,
2008-11-20, 03:09:04,VALID,1002.17,VALID,0,VALID,96.3909,VALID,0,VALID,23.7035,VALID,3,VALID,0,
2008-11-20, 03:10:04,VALID,1002.17,VALID,0,VALID,96.3909,VALID,0,VALID,23.7035,VALID,3,VALID,0.359766,
2008-11-20, 03:11:04,VALID,1002.17,VALID,0,VALID,96.3833,VALID,0,VALID,23.7035,VALID,3,VALID,0.500781,
2008-11-20, 03:12:04,VALID,1002.18,VALID,0,VALID,96.3756,VALID,0.100563,VALID,23.7035,VALID,3,VALID,0.45625,
2008-11-20, 03:13:04,VALID,1002.2,VALID,0,VALID,96.3833,VALID,0,VALID,23.6841,VALID,3,VALID,0.444141,
2008-11-20, 03:14:04,VALID,1002.19,VALID,0,VALID,96.3985,VALID,0,VALID,23.6646,VALID,3,VALID,0.388672,
2008-11-20, 03:15:04,VALID,1002.19,VALID,0,VALID,96.3833,VALID,0,VALID,23.6646,VALID,3,VALID,0.655859,
2008-11-20, 03:16:04,VALID,1002.22,VALID,0,VALID,96.3985,VALID,0,VALID,23.6434,VALID,3,VALID,0.448828,
2008-11-20, 03:17:04,VALID,1002.21,VALID,0,VALID,96.3909,VALID,0,VALID,23.6646,VALID,3,VALID,0.236328,
2008-11-20, 03:18:04,VALID,1002.18,VALID,0,VALID,96.3909,VALID,0,VALID,23.6646,VALID,3,VALID,0.323828,
2008-11-20, 03:19:04,VALID,1002.15,VALID,0,VALID,96.3909,VALID,0.100563,VALID,23.6434,VALID,3,VALID,0.341797,
2008-11-20, 03:20:04,VALID,1002.16,VALID,0,VALID,96.3833,VALID,0.100563,VALID,23.6434,VALID,3,VALID,0.345313,
2008-11-20, 03:21:04,VALID,1002.14,VALID,0,VALID,96.3985,VALID,0,VALID,23.6646,VALID,3,VALID,0.330469,
2008-11-20, 03:22:04,VALID,1002.1,VALID,0,VALID,96.4062,VALID,0,VALID,23.6646,VALID,3,VALID,0.295703,
2008-11-20, 03:23:04,VALID,1002.09,VALID,0,VALID,96.368,VALID,0.100563,VALID,23.6841,VALID,3,VALID,0.358203,
2008-11-20, 03:24:04,VALID,1002.07,VALID,0,VALID,96.3909,VALID,0,VALID,23.6452,VALID,3,VALID,0.3125,
2008-11-20, 03:25:04,VALID,1002.04,VALID,0,VALID,96.3756,VALID,0,VALID,23.6841,VALID,3,VALID,0.312109,
2008-11-20, 03:26:04,VALID,1002.06,VALID,0,VALID,96.3833,VALID,0,VALID,23.7035,VALID,3,VALID,0.241406,
2008-11-20, 03:27:04,VALID,1002.04,VALID,0,VALID,96.3985,VALID,0.100563,VALID,23.723,VALID,3,VALID,0.285937,
2008-11-20, 03:28:04,VALID,1002.04,VALID,0,VALID,96.3833,VALID,0,VALID,23.723,VALID,3,VALID,0.364844,
2008-11-20, 03:29:04,VALID,1002.01,VALID,0,VALID,96.3985,VALID,0,VALID,23.723,VALID,3,VALID,0.496484,
2008-11-20, 03:30:04,VALID,1002.02,VALID,0,VALID,96.3985,VALID,0,VALID,23.723,VALID,3,VALID,0.366797,
2008-11-20, 03:31:04,VALID,1001.98,VALID,0,VALID,96.4062,VALID,0,VALID,23.7425,VALID,3,VALID,0.00117188,
2008-11-20, 03:32:04,VALID,1001.98,VALID,0,VALID,96.4062,VALID,0.100563,VALID,23.7425,VALID,3,VALID,0.2375,
2008-11-20, 03:33:04,VALID,1001.97,VALID,0,VALID,96.3909,VALID,0,VALID,23.723,VALID,3,VALID,0.155859,
2008-11-20, 03:34:04,VALID,1001.94,VALID,0,VALID,96.3985,VALID,0.100563,VALID,23.7017,VALID,3,VALID,0.186328,
2008-11-20, 03:35:04,VALID,1001.94,VALID,0,VALID,96.3833,VALID,0,VALID,23.7425,VALID,3,VALID,0,
2008-11-20, 03:36:04,VALID,1001.93,VALID,0,VALID,96.4062,VALID,0,VALID,23.7212,VALID,3,VALID,0.152734,
2008-11-20, 03:37:04,VALID,1001.92,VALID,0,VALID,96.4062,VALID,0,VALID,23.7619,VALID,12,VALID,0.369141,
2008-11-20, 03:38:04,VALID,1001.91,VALID,0,VALID,96.4062,VALID,0.100563,VALID,23.7407,VALID,46,VALID,0.410156,
2008-11-20, 03:39:04,VALID,1001.9,VALID,0,VALID,96.4062,VALID,0,VALID,23.7425,VALID,64,VALID,0.261328,
2008-11-20, 03:40:04,VALID,1001.91,VALID,0,VALID,96.4138,VALID,0,VALID,23.7425,VALID,67,VALID,0.314844,
2008-11-20, 03:41:04,VALID,1001.92,VALID,0,VALID,96.3985,VALID,0,VALID,23.7425,VALID,86,VALID,0.289063,
2008-11-20, 03:42:04,VALID,1001.91,VALID,0,VALID,96.3833,VALID,0.100563,VALID,23.7619,VALID,86,VALID,0.466797,
2008-11-20, 03:43:04,VALID,1001.95,VALID,0,VALID,96.3985,VALID,0,VALID,23.7425,VALID,86,VALID,0.522656,
2008-11-20, 03:44:04,VALID,1001.99,VALID,0,VALID,96.3909,VALID,0,VALID,23.7425,VALID,86,VALID,0.393359,
2008-11-20, 03:45:04,VALID,1002.01,VALID,0,VALID,96.3985,VALID,0,VALID,23.7619,VALID,86,VALID,0.445703,
2008-11-20, 03:46:04,VALID,1002,VALID,0,VALID,96.3985,VALID,0,VALID,23.7619,VALID,86,VALID,0.111328,